Waarnemingen

Advertentie
Mijn weer
Hyeres, Frankrijk (7667): temperatuur & dauwpunt: 22.05.2017 06:00:00 - 28.05.2017 06:00:00 (CEST)Hyeres, Frankrijk (7667): temperatuur 5cm: 22.05.2017 06:00:00 - 28.05.2017 06:00:00 (CEST)Hyeres, Frankrijk (7667): windsnelheid & windstoten: 22.05.2017 06:00:00 - 28.05.2017 06:00:00 (CEST)Hyeres, Frankrijk (7667): windrichting: 22.05.2017 06:00:00 - 28.05.2017 06:00:00 (CEST)Hyeres, Frankrijk (7667): luchtdruk: 22.05.2017 06:00:00 - 28.05.2017 06:00:00 (CEST)Hyeres, Frankrijk (7667): zicht: 22.05.2017 06:00:00 - 28.05.2017 06:00:00 (CEST)Hyeres, Frankrijk (7667): neerslag: 22.05.2017 06:00:00 - 28.05.2017 06:00:00 (CEST)
Datum & Tijd tt [°C] td [°C] tt 5cm [°C] ff [km/u] ff [kn] fx [km/u] fx [kn] dd ppp [hPa] vv [km] rr [mm]
28.05.2017 06:00:00 12,8 10,5 10,3 4 2 8 5 NNO 1020,7 20 0,0
28.05.2017 05:00:00 13,2 10,6 10,2 0 0 8 4 N 1020,7 40 0,0
28.05.2017 04:00:00 13,1 10,3 10,8 3 1 7 4 O 1020,4 53 0,0
28.05.2017 03:00:00 14,5 10,7 10,6 2 1 5 3 NNW 1020,4 55 0,0
28.05.2017 02:00:00 14,9 10,3 10,9 4 2 7 4 NNW 1020,6 58 0,0
28.05.2017 01:00:00 15,0 10,4 - 4 2 5 3 NNO 1020,5 60 0,0
28.05.2017 00:00:00 16,1 11,5 12,2 3 2 8 4 NNO 1020,4 60 0,0
27.05.2017 23:00:00 18,2 11,5 12,8 3 1 5 3 NW 1020,3 60 0,0
27.05.2017 22:00:00 20,5 9,4 16,4 0 0 13 7 N 1020,0 60 0,0
27.05.2017 21:00:00 22,3 6,5 20,3 11 6 14 8 ZZW 1019,4 60 0,0
27.05.2017 20:00:00 23,8 5,6 25,1 9 5 16 8 ZZW 1019,3 53 0,0
27.05.2017 19:00:00 24,9 5,6 28,8 12 6 19 10 ZZW 1019,1 37 0,0
27.05.2017 18:00:00 26,0 6,1 31,3 14 7 19 11 ZZW 1019,3 39 0,0
27.05.2017 17:00:00 26,4 11,7 31,7 10 6 18 10 Z 1019,6 41 0,0
27.05.2017 16:00:00 24,8 13,4 31,1 14 7 24 13 OZO 1020,0 18 0,0
27.05.2017 15:00:00 24,2 13,4 30,6 18 10 25 14 O 1020,4 39 0,0
27.05.2017 14:00:00 23,6 14,9 31,1 16 9 21 12 ZO 1020,5 20 0,0
27.05.2017 13:00:00 24,3 14,1 30,8 12 7 18 10 OZO 1020,8 20 0,0
27.05.2017 12:00:00 24,9 10,4 32,9 10 6 15 8 ZO 1020,7 59 0,0
27.05.2017 11:00:00 24,9 8,4 31,7 12 7 17 9 OZO 1020,3 19 0,0
27.05.2017 10:00:00 24,2 9,7 29,7 7 4 12 7 OZO 1020,2 60 0,0
27.05.2017 09:00:00 22,9 12,5 25,2 3 2 9 5 NNO 1019,9 58 0,0
27.05.2017 08:00:00 20,4 13,8 16,4 0 0 8 4 N 1019,7 58 0,0
27.05.2017 07:00:00 14,9 11,9 11,4 0 0 8 4 N 1019,5 56 0,0
27.05.2017 06:00:00 15,0 11,4 11,2 2 1 11 6 N 1018,8 60 0,0
27.05.2017 05:00:00 14,6 11,6 11,7 5 3 8 4 N 1018,5 58 0,0
27.05.2017 04:00:00 13,8 11,0 11,2 3 2 8 4 N 1018,5 60 0,0
27.05.2017 03:00:00 14,2 11,0 11,7 0 0 4 2 N 1018,3 60 0,0
27.05.2017 02:00:00 14,8 10,8 11,3 2 1 7 4 NNW 1017,9 60 0,0
27.05.2017 01:00:00 14,9 11,1 12,1 3 2 6 3 N 1017,8 60 0,0
27.05.2017 00:00:00 16,0 11,6 12,1 3 1 5 3 N 1017,8 60 0,0
26.05.2017 23:00:00 17,1 12,0 13,2 4 2 7 4 NNW 1017,6 60 0,0
26.05.2017 22:00:00 19,0 11,8 13,8 0 0 4 2 N 1017,2 60 0,0
26.05.2017 21:00:00 20,0 13,0 17,0 0 0 8 5 N 1016,9 60 0,0
26.05.2017 20:00:00 21,3 14,2 22,6 6 4 17 9 OZO 1016,8 60 0,0
26.05.2017 19:00:00 22,3 13,9 23,3 13 7 29 15 OZO 1016,8 60 0,0
26.05.2017 18:00:00 22,4 14,3 25,9 21 12 34 18 OZO 1017,2 20 0,0
26.05.2017 17:00:00 22,9 13,9 26,4 24 13 39 21 OZO 1017,3 20 0,0
26.05.2017 16:00:00 23,2 15,3 28,8 25 13 35 19 OZO 1017,3 21 0,0
26.05.2017 15:00:00 24,2 14,9 29,8 24 13 35 19 O 1017,8 20 0,0
26.05.2017 14:00:00 23,7 16,0 28,9 26 14 36 20 O 1017,9 25 0,0
26.05.2017 13:00:00 24,4 16,1 30,6 23 12 29 15 OZO 1018,0 30 0,0
26.05.2017 12:00:00 24,5 16,0 30,6 21 11 27 15 OZO 1017,9 36 0,0
26.05.2017 11:00:00 24,3 16,6 28,7 19 10 27 14 O 1017,6 20 0,0
26.05.2017 10:00:00 22,8 16,3 27,6 13 7 22 12 OZO 1017,3 20 0,0
26.05.2017 09:00:00 22,5 15,3 24,4 9 5 15 8 OZO 1017,2 49 0,0
26.05.2017 08:00:00 19,6 16,2 15,0 6 3 11 6 N 1016,8 19 0,0
26.05.2017 07:00:00 15,2 13,2 11,7 4 2 6 3 N 1016,7 14 0,0
26.05.2017 06:00:00 14,0 12,6 11,0 4 2 6 4 NNW 1016,6 12 0,0
26.05.2017 05:00:00 13,9 12,1 11,0 0 0 5 3 N 1016,2 11 0,0
26.05.2017 04:00:00 14,3 12,7 11,4 4 2 5 3 NNO 1016,3 11 0,0
26.05.2017 03:00:00 14,4 12,4 11,9 0 0 5 3 N 1016,1 12 0,0
26.05.2017 02:00:00 14,5 12,5 12,1 0 0 7 4 N 1016,1 15 0,0
26.05.2017 01:00:00 15,6 13,8 13,3 0 0 3 2 N 1016,0 2,1 0,0
26.05.2017 00:00:00 17,3 16,0 - 2 1 8 4 N 1015,6 10 0,0
25.05.2017 23:00:00 18,2 15,8 15,0 2 1 6 3 O 1015,4 12 0,0
25.05.2017 22:00:00 18,5 15,9 16,8 2 1 22 12 NW 1015,1 17 0,0
25.05.2017 21:00:00 19,8 14,6 18,9 11 6 22 12 OZO 1014,6 35 0,0
25.05.2017 20:00:00 21,3 14,7 22,4 16 9 30 16 O 1014,3 30 0,0
25.05.2017 19:00:00 20,9 16,1 23,8 22 12 32 18 OZO 1014,4 14 0,0
25.05.2017 18:00:00 20,9 15,9 25,2 21 12 32 17 OZO 1015,0 13 0,0
25.05.2017 17:00:00 21,6 16,1 - 16 9 37 20 O 1015,1 12 -
25.05.2017 16:00:00 21,7 16,0 27,0 23 13 37 20 OZO 1015,5 10 0,0
25.05.2017 15:00:00 21,1 15,9 26,5 25 13 38 21 OZO 1015,7 9 0,0
25.05.2017 14:00:00 21,0 16,2 26,2 27 15 40 21 O 1015,8 8 0,0
25.05.2017 13:00:00 20,5 16,1 26,1 30 16 42 23 OZO 1015,3 7 0,0
25.05.2017 12:00:00 20,6 16,6 25,8 26 14 40 21 OZO 1015,2 6 0,0
25.05.2017 11:00:00 20,1 16,3 22,4 24 13 35 19 O 1015,0 6 0,0
25.05.2017 10:00:00 19,0 16,4 19,7 23 12 34 19 O 1015,0 5 0,0
25.05.2017 09:00:00 18,4 15,8 17,8 12 7 21 11 ONO 1014,6 17 0,0
25.05.2017 08:00:00 17,3 16,0 16,7 7 4 12 7 NO 1014,1 7 0,0
25.05.2017 07:00:00 16,6 15,5 16,4 6 4 11 6 NNO 1013,8 5 0,0
25.05.2017 06:00:00 16,6 15,5 16,0 6 4 10 5 N 1013,6 5 0,0
25.05.2017 05:00:00 16,1 15,1 14,8 4 2 9 5 NNO 1014,0 4,6 0,0
25.05.2017 04:00:00 15,0 14,0 13,0 6 3 9 5 NO 1014,3 6 0,0
25.05.2017 03:00:00 14,7 13,7 11,2 0 0 6 3 N 1014,7 3,2 0,0
25.05.2017 02:00:00 14,8 13,5 11,4 3 2 7 4 NO 1015,1 4,5 0,0
25.05.2017 01:00:00 15,1 13,5 - 4 2 8 4 ONO 1015,6 6 0,0
25.05.2017 00:00:00 16,8 15,1 14,1 3 2 6 4 NNO 1016,2 8 0,0
24.05.2017 23:00:00 17,4 14,5 - 5 3 16 9 NNW 1016,4 10 -
24.05.2017 22:00:00 18,5 16,3 17,1 9 5 18 10 ZW 1016,2 7 0,0
24.05.2017 21:00:00 18,9 16,3 18,1 13 7 23 13 ZZW 1015,9 24 0,0
24.05.2017 20:00:00 19,8 16,2 21,4 18 10 24 13 ZZW 1016,0 19 0,0
24.05.2017 19:00:00 20,1 15,9 23,2 16 9 25 14 ZW 1016,5 14 0,0
24.05.2017 18:00:00 21,1 15,9 - 21 11 26 14 ZW 1016,8 14 0,0
24.05.2017 17:00:00 21,5 15,6 26,8 18 10 24 13 ZZW 1017,5 15 0,0
24.05.2017 16:00:00 21,1 15,6 27,9 16 8 25 13 ZZW 1018,0 15 0,0
24.05.2017 15:00:00 21,8 15,4 29,1 17 9 23 12 ZW 1018,6 15 0,0
24.05.2017 14:00:00 22,1 15,4 29,0 14 8 22 12 ZO 1018,6 15 0,0
24.05.2017 13:00:00 20,8 15,3 27,9 10 5 19 10 ZO 1018,6 15 0,0
24.05.2017 12:00:00 19,8 15,0 26,0 13 7 25 14 OZO 1019,0 14 0,0
24.05.2017 11:00:00 19,2 15,1 25,0 19 10 30 16 OZO 1019,3 14 0,0
24.05.2017 10:00:00 19,4 15,5 19,8 18 10 25 14 O 1019,4 15 0,0
24.05.2017 09:00:00 17,6 15,2 19,0 15 8 22 12 O 1019,3 18 0,0
24.05.2017 08:00:00 16,4 15,9 15,9 4 2 12 6 NNO 1018,9 6 0,0
24.05.2017 07:00:00 15,8 15,5 15,2 9 5 16 9 N 1018,5 1,9 0,0
24.05.2017 06:00:00 15,4 15,1 15,0 8 5 12 7 N 1018,1 0,3 0,0
24.05.2017 05:00:00 15,3 14,8 15,1 6 3 9 5 N 1018,0 0,2 0,0
24.05.2017 04:00:00 15,8 15,3 14,2 3 2 10 5 NNW 1018,1 0,2 0,0
24.05.2017 03:00:00 14,5 13,9 11,8 8 4 10 5 NO 1018,0 2,6 0,0
24.05.2017 02:00:00 13,7 12,4 - 5 3 8 4 NO 1018,4 12 -
24.05.2017 01:00:00 14,6 13,1 - 2 1 11 6 N 1018,6 9 0,0
24.05.2017 00:00:00 16,2 15,1 - 2 1 8 4 NNO 1018,7 1,9 0,0
23.05.2017 23:00:00 17,4 15,7 13,8 0 0 8 4 N 1018,6 8 0,0
23.05.2017 22:00:00 18,6 16,9 16,6 5 3 8 5 ZZW 1018,3 11 0,0
23.05.2017 21:00:00 19,3 15,4 - 5 3 16 9 Z 1018,0 30 0,0
23.05.2017 20:00:00 20,2 16,8 21,6 14 8 19 10 ZZW 1017,9 20 0,0
23.05.2017 19:00:00 22,3 15,4 24,6 8 4 14 7 OZO 1017,8 49 0,0
23.05.2017 18:00:00 23,2 13,9 27,9 7 4 16 8 ZZO 1018,1 32 0,0
23.05.2017 17:00:00 23,2 13,1 - 11 6 21 11 ZZW 1018,3 40 -
23.05.2017 16:00:00 23,0 14,3 30,4 13 7 20 11 ZZW 1018,4 30 0,0
23.05.2017 15:00:00 22,0 14,9 28,3 13 7 21 11 ZZW 1018,8 32 0,0
23.05.2017 14:00:00 21,7 15,1 26,4 14 8 19 11 ZW 1018,8 20 0,0
23.05.2017 13:00:00 22,3 14,4 30,0 11 6 20 11 Z 1018,7 20 0,0
23.05.2017 12:00:00 22,1 14,7 25,9 12 7 20 11 ZO 1018,6 48 0,0
23.05.2017 11:00:00 21,1 13,3 28,1 11 6 19 10 ZO 1018,5 56 0,0
23.05.2017 10:00:00 20,2 10,0 25,4 9 5 15 8 ZO 1018,5 60 0,0
23.05.2017 09:00:00 19,2 9,7 20,3 8 4 13 7 O 1018,4 60 0,0
23.05.2017 08:00:00 15,6 9,3 14,2 5 3 9 5 NO 1017,9 53 0,0
23.05.2017 07:00:00 11,0 8,2 6,2 2 1 8 4 ONO 1017,4 58 0,0
23.05.2017 06:00:00 9,0 7,1 5,9 3 1 6 3 N 1017,1 60 0,0
23.05.2017 05:00:00 9,8 7,4 6,8 0 0 8 4 N 1016,8 60 0,0
23.05.2017 04:00:00 10,4 7,8 7,6 3 2 9 5 N 1016,7 60 0,0
23.05.2017 03:00:00 11,7 8,4 7,7 0 0 7 4 N 1017,2 57 0,0
23.05.2017 02:00:00 11,5 8,4 8,9 0 0 5 3 N 1017,3 56 0,0
23.05.2017 01:00:00 12,6 8,9 9,2 0 0 7 4 N 1017,8 60 0,0
23.05.2017 00:00:00 13,7 8,3 - 2 1 9 5 N 1017,8 60 0,0
22.05.2017 23:00:00 17,1 7,7 - 0 0 9 5 N 1018,0 19 -
22.05.2017 22:00:00 18,7 7,2 16,6 9 5 18 10 ZZW 1017,8 60 0,0
22.05.2017 21:00:00 19,4 10,1 - 8 4 22 12 ZZW 1017,4 60 0,0
22.05.2017 20:00:00 19,1 12,1 18,8 18 10 34 19 ZW 1017,2 59 0,0
22.05.2017 19:00:00 19,9 8,9 21,0 17 9 29 15 ZW 1017,4 58 0,0
22.05.2017 18:00:00 21,0 5,7 21,7 14 8 29 16 ZW 1017,8 54 0,0
22.05.2017 17:00:00 20,9 9,5 23,9 18 10 25 14 ZZW 1018,2 40 0,0
22.05.2017 16:00:00 21,6 7,8 25,2 11 6 32 17 ZZW 1018,9 42 0,0
22.05.2017 15:00:00 20,1 14,5 24,0 26 14 35 19 ZW 1019,3 47 0,0
22.05.2017 14:00:00 22,9 10,0 22,9 10 5 30 16 ZZW 1019,5 57 0,0
22.05.2017 13:00:00 19,9 12,4 20,4 14 7 25 14 ZZW 1019,8 60 0,0
22.05.2017 12:00:00 20,2 13,4 24,6 17 9 27 15 ZW 1019,8 53 0,0
22.05.2017 11:00:00 20,6 10,4 23,4 11 6 18 10 Z 1019,8 60 0,0
22.05.2017 10:00:00 19,7 10,9 22,6 9 5 12 7 ZZO 1019,7 60 0,0
22.05.2017 09:00:00 20,4 10,5 21,9 5 3 11 6 NNO 1019,2 60 0,0
22.05.2017 08:00:00 17,0 10,4 13,9 9 5 13 7 N 1018,8 53 0,0
22.05.2017 07:00:00 12,0 8,8 6,9 8 4 14 7 NNW 1018,5 60 0,0
22.05.2017 06:00:00 9,7 7,1 6,8 2 1 8 5 NNW 1018,5 60 0,0

tt = temperatuur
td = dauwpunt
tt 5cm = temperatuur 5cm
ff = windsnelheid
fx = windstoten
dd = windrichting
ppp = luchtdruk
vv = zicht
rr = neerslag

Weerstations in de omgeving